Old browser warning

Site look funky?  Your browser is either Internet Explorer (hit refresh (F5) several times due to a bug in Microsoft's code that we can't work around) or is 10 years old and standards-based layouts and styling confuse it.   Consider updating.  One excellent option is Mozilla Firefox, versions of which are available for Linux, Mac and Windows. Safari 1.0+ and IE 6.0+ are also supported.

Pit At Big Bend [ USA-CAL ]

Edit Gauge

Current Conditions

Reading of "n/a" = frozen gauge or gauge error.
Reading Trend Type Updated
running 0.0 r.c./hr Status 02h44m
2034 cfs -8 cfs/hr Flow 02h44m

Station Description

AW Gauge ID: 45208
Source: dream
Station: 046
Enabled yes
AW thanks Chris Shackleton and Dreamflows for this data. Dreamflows data should only be analyzed in the context of the Dreamflows site. Data is often calculated and/or approximated. Please see Chris's site for a complete description of how this data should and can be interpreted. Source Gauge's Page

Information

Flow

Gauge History

Times listed in GMT 24h, ET and PT hours provided for convenience Graphs in GMT. Readings of "n/a" constitute a frozen gauge or gauge error.
Reading Updated (GMT) Eastern Pacific Comment
2034.00 09/21/2017 14:58:08 Sep 21 10:58 am Sep 21 7:58 am
2042.00 09/21/2017 13:58:24 Sep 21 09:58 am Sep 21 6:58 am
2039.00 09/21/2017 12:58:40 Sep 21 08:58 am Sep 21 5:58 am
1992.00 09/21/2017 11:58:56 Sep 21 07:58 am Sep 21 4:58 am
1964.00 09/21/2017 10:59:12 Sep 21 06:59 am Sep 21 3:59 am
1927.00 09/21/2017 08:59:44 Sep 21 04:59 am Sep 21 1:59 am
1915.00 09/21/2017 08:00:00 Sep 21 04:00 am Sep 21 1:00 am
1901.00 09/21/2017 06:58:08 Sep 21 02:58 am Sep 20 11:58 pm
1923.00 09/21/2017 02:59:12 Sep 20 10:59 pm Sep 20 7:59 pm
1927.00 09/21/2017 01:59:28 Sep 20 09:59 pm Sep 20 6:59 pm
1932.00 09/21/2017 00:59:44 Sep 20 08:59 pm Sep 20 5:59 pm
1892.00 09/21/2017 00:00:00 Sep 20 08:00 pm Sep 20 5:00 pm
1881.00 09/20/2017 22:58:08 Sep 20 06:58 pm Sep 20 3:58 pm
1890.00 09/20/2017 21:58:24 Sep 20 05:58 pm Sep 20 2:58 pm
1886.00 09/20/2017 20:58:40 Sep 20 04:58 pm Sep 20 1:58 pm
1880.00 09/20/2017 19:58:56 Sep 20 03:58 pm Sep 20 12:58 pm
1877.00 09/20/2017 18:59:12 Sep 20 02:59 pm Sep 20 11:59 am
1879.00 09/20/2017 17:59:28 Sep 20 01:59 pm Sep 20 10:59 am
1864.00 09/20/2017 16:59:44 Sep 20 12:59 pm Sep 20 9:59 am
1857.00 09/20/2017 16:00:00 Sep 20 12:00 pm Sep 20 9:00 am
1852.00 09/20/2017 14:58:08 Sep 20 10:58 am Sep 20 7:58 am
1856.00 09/20/2017 13:58:24 Sep 20 09:58 am Sep 20 6:58 am
1844.00 09/20/2017 12:58:40 Sep 20 08:58 am Sep 20 5:58 am
1840.00 09/20/2017 11:58:56 Sep 20 07:58 am Sep 20 4:58 am
1848.00 09/20/2017 10:59:12 Sep 20 06:59 am Sep 20 3:59 am
1836.00 09/20/2017 09:59:28 Sep 20 05:59 am Sep 20 2:59 am
1844.00 09/20/2017 08:59:44 Sep 20 04:59 am Sep 20 1:59 am
1840.00 09/20/2017 08:00:00 Sep 20 04:00 am Sep 20 1:00 am
1843.00 09/20/2017 06:58:08 Sep 20 02:58 am Sep 19 11:58 pm
1852.00 09/19/2017 22:58:08 Sep 19 06:58 pm Sep 19 3:58 pm
1843.00 09/19/2017 21:58:24 Sep 19 05:58 pm Sep 19 2:58 pm
1840.00 09/19/2017 20:58:40 Sep 19 04:58 pm Sep 19 1:58 pm
1847.00 09/19/2017 19:58:56 Sep 19 03:58 pm Sep 19 12:58 pm
1838.00 09/19/2017 18:59:12 Sep 19 02:59 pm Sep 19 11:59 am
1845.00 09/19/2017 17:59:28 Sep 19 01:59 pm Sep 19 10:59 am
1841.00 09/19/2017 16:59:44 Sep 19 12:59 pm Sep 19 9:59 am
1849.00 09/19/2017 16:00:00 Sep 19 12:00 pm Sep 19 9:00 am
1862.00 09/19/2017 14:58:08 Sep 19 10:58 am Sep 19 7:58 am
1861.00 09/19/2017 13:58:24 Sep 19 09:58 am Sep 19 6:58 am
1861.00 09/19/2017 12:58:40 Sep 19 08:58 am Sep 19 5:58 am
1859.00 09/19/2017 11:58:56 Sep 19 07:58 am Sep 19 4:58 am
1864.00 09/19/2017 10:59:12 Sep 19 06:59 am Sep 19 3:59 am
1863.00 09/19/2017 09:59:28 Sep 19 05:59 am Sep 19 2:59 am
1861.00 09/19/2017 08:59:44 Sep 19 04:59 am Sep 19 1:59 am
1873.00 09/19/2017 08:00:00 Sep 19 04:00 am Sep 19 1:00 am
1872.00 09/19/2017 06:58:08 Sep 19 02:58 am Sep 18 11:58 pm
1879.00 09/19/2017 02:59:12 Sep 18 10:59 pm Sep 18 7:59 pm
1885.00 09/19/2017 01:59:28 Sep 18 09:59 pm Sep 18 6:59 pm
1880.00 09/19/2017 00:59:44 Sep 18 08:59 pm Sep 18 5:59 pm
1884.00 09/19/2017 00:00:00 Sep 18 08:00 pm Sep 18 5:00 pm
1881.00 09/18/2017 22:58:08 Sep 18 06:58 pm Sep 18 3:58 pm
1885.00 09/18/2017 21:58:24 Sep 18 05:58 pm Sep 18 2:58 pm
1885.00 09/18/2017 19:58:56 Sep 18 03:58 pm Sep 18 12:58 pm
1882.00 09/18/2017 18:59:12 Sep 18 02:59 pm Sep 18 11:59 am
1895.00 09/18/2017 17:59:28 Sep 18 01:59 pm Sep 18 10:59 am
1894.00 09/18/2017 16:59:44 Sep 18 12:59 pm Sep 18 9:59 am
1893.00 09/18/2017 16:00:00 Sep 18 12:00 pm Sep 18 9:00 am
1888.00 09/18/2017 14:58:08 Sep 18 10:58 am Sep 18 7:58 am
1863.00 09/18/2017 13:58:24 Sep 18 09:58 am Sep 18 6:58 am
1862.00 09/18/2017 12:58:40 Sep 18 08:58 am Sep 18 5:58 am
1880.00 09/18/2017 11:58:56 Sep 18 07:58 am Sep 18 4:58 am
1950.00 09/18/2017 10:59:12 Sep 18 06:59 am Sep 18 3:59 am
1958.00 09/18/2017 09:59:28 Sep 18 05:59 am Sep 18 2:59 am
1964.00 09/18/2017 08:59:44 Sep 18 04:59 am Sep 18 1:59 am
1977.00 09/18/2017 08:00:00 Sep 18 04:00 am Sep 18 1:00 am
1980.00 09/18/2017 06:58:08 Sep 18 02:58 am Sep 17 11:58 pm
1990.00 09/18/2017 02:59:12 Sep 17 10:59 pm Sep 17 7:59 pm
1981.00 09/18/2017 01:59:28 Sep 17 09:59 pm Sep 17 6:59 pm
1981.00 09/18/2017 00:59:44 Sep 17 08:59 pm Sep 17 5:59 pm
1962.00 09/18/2017 00:00:00 Sep 17 08:00 pm Sep 17 5:00 pm
1956.00 09/17/2017 22:58:08 Sep 17 06:58 pm Sep 17 3:58 pm
1964.00 09/17/2017 21:58:24 Sep 17 05:58 pm Sep 17 2:58 pm
1957.00 09/17/2017 20:58:40 Sep 17 04:58 pm Sep 17 1:58 pm
1958.00 09/17/2017 19:58:56 Sep 17 03:58 pm Sep 17 12:58 pm
1957.00 09/17/2017 18:59:12 Sep 17 02:59 pm Sep 17 11:59 am
1960.00 09/17/2017 17:59:28 Sep 17 01:59 pm Sep 17 10:59 am
1964.00 09/17/2017 16:59:44 Sep 17 12:59 pm Sep 17 9:59 am
1965.00 09/17/2017 16:00:00 Sep 17 12:00 pm Sep 17 9:00 am
1960.00 09/17/2017 14:58:08 Sep 17 10:58 am Sep 17 7:58 am
1976.00 09/17/2017 13:58:24 Sep 17 09:58 am Sep 17 6:58 am
1970.00 09/17/2017 12:58:40 Sep 17 08:58 am Sep 17 5:58 am
1978.00 09/17/2017 11:58:56 Sep 17 07:58 am Sep 17 4:58 am
1985.00 09/17/2017 10:59:12 Sep 17 06:59 am Sep 17 3:59 am
1984.00 09/17/2017 09:59:28 Sep 17 05:59 am Sep 17 2:59 am
1986.00 09/17/2017 08:59:44 Sep 17 04:59 am Sep 17 1:59 am
1988.00 09/17/2017 08:00:00 Sep 17 04:00 am Sep 17 1:00 am
1976.00 09/17/2017 06:58:08 Sep 17 02:58 am Sep 16 11:58 pm
1944.00 09/17/2017 02:59:12 Sep 16 10:59 pm Sep 16 7:59 pm
1947.00 09/17/2017 01:59:28 Sep 16 09:59 pm Sep 16 6:59 pm
1953.00 09/17/2017 00:59:44 Sep 16 08:59 pm Sep 16 5:59 pm
1958.00 09/17/2017 00:00:00 Sep 16 08:00 pm Sep 16 5:00 pm
1960.00 09/16/2017 21:58:24 Sep 16 05:58 pm Sep 16 2:58 pm
1962.00 09/16/2017 20:58:40 Sep 16 04:58 pm Sep 16 1:58 pm
1962.00 09/16/2017 19:58:56 Sep 16 03:58 pm Sep 16 12:58 pm
1950.00 09/16/2017 18:59:12 Sep 16 02:59 pm Sep 16 11:59 am
1969.00 09/16/2017 17:59:28 Sep 16 01:59 pm Sep 16 10:59 am
1977.00 09/16/2017 16:59:44 Sep 16 12:59 pm Sep 16 9:59 am
1981.00 09/16/2017 16:00:00 Sep 16 12:00 pm Sep 16 9:00 am
1986.00 09/16/2017 14:58:08 Sep 16 10:58 am Sep 16 7:58 am
1989.00 09/16/2017 13:58:24 Sep 16 09:58 am Sep 16 6:58 am
1994.00 09/16/2017 12:58:40 Sep 16 08:58 am Sep 16 5:58 am
2008.00 09/16/2017 11:58:56 Sep 16 07:58 am Sep 16 4:58 am
2008.00 09/16/2017 10:59:12 Sep 16 06:59 am Sep 16 3:59 am
2012.00 09/16/2017 09:59:28 Sep 16 05:59 am Sep 16 2:59 am
2019.00 09/16/2017 08:59:44 Sep 16 04:59 am Sep 16 1:59 am
2019.00 09/16/2017 08:00:00 Sep 16 04:00 am Sep 16 1:00 am
2017.00 09/16/2017 06:58:08 Sep 16 02:58 am Sep 15 11:58 pm
2004.00 09/16/2017 02:59:12 Sep 15 10:59 pm Sep 15 7:59 pm
2013.00 09/16/2017 01:59:28 Sep 15 09:59 pm Sep 15 6:59 pm
2015.00 09/16/2017 00:59:44 Sep 15 08:59 pm Sep 15 5:59 pm
2005.00 09/16/2017 00:00:00 Sep 15 08:00 pm Sep 15 5:00 pm
2021.00 09/15/2017 22:58:08 Sep 15 06:58 pm Sep 15 3:58 pm
1985.00 09/15/2017 21:58:24 Sep 15 05:58 pm Sep 15 2:58 pm
1977.00 09/15/2017 20:58:40 Sep 15 04:58 pm Sep 15 1:58 pm
1973.00 09/15/2017 19:58:56 Sep 15 03:58 pm Sep 15 12:58 pm
1978.00 09/15/2017 18:59:12 Sep 15 02:59 pm Sep 15 11:59 am
1981.00 09/15/2017 17:59:28 Sep 15 01:59 pm Sep 15 10:59 am
1985.00 09/15/2017 16:59:44 Sep 15 12:59 pm Sep 15 9:59 am
1982.00 09/15/2017 16:00:00 Sep 15 12:00 pm Sep 15 9:00 am
1982.00 09/15/2017 14:58:08 Sep 15 10:58 am Sep 15 7:58 am
1988.00 09/15/2017 13:58:24 Sep 15 09:58 am Sep 15 6:58 am
1989.00 09/15/2017 12:58:40 Sep 15 08:58 am Sep 15 5:58 am
1986.00 09/15/2017 11:58:56 Sep 15 07:58 am Sep 15 4:58 am
1982.00 09/15/2017 10:59:12 Sep 15 06:59 am Sep 15 3:59 am
1986.00 09/15/2017 09:59:28 Sep 15 05:59 am Sep 15 2:59 am
1994.00 09/15/2017 08:59:44 Sep 15 04:59 am Sep 15 1:59 am
1986.00 09/15/2017 08:00:00 Sep 15 04:00 am Sep 15 1:00 am
1986.00 09/15/2017 06:58:08 Sep 15 02:58 am Sep 14 11:58 pm
1981.00 09/15/2017 02:59:12 Sep 14 10:59 pm Sep 14 7:59 pm
1985.00 09/15/2017 01:59:28 Sep 14 09:59 pm Sep 14 6:59 pm
1976.00 09/15/2017 00:59:44 Sep 14 08:59 pm Sep 14 5:59 pm
1973.00 09/15/2017 00:00:00 Sep 14 08:00 pm Sep 14 5:00 pm
1986.00 09/14/2017 22:58:08 Sep 14 06:58 pm Sep 14 3:58 pm
2001.00 09/14/2017 21:58:24 Sep 14 05:58 pm Sep 14 2:58 pm
1998.00 09/14/2017 20:58:40 Sep 14 04:58 pm Sep 14 1:58 pm
1998.00 09/14/2017 19:58:56 Sep 14 03:58 pm Sep 14 12:58 pm
1998.00 09/14/2017 18:59:12 Sep 14 02:59 pm Sep 14 11:59 am
1997.00 09/14/2017 17:59:28 Sep 14 01:59 pm Sep 14 10:59 am
1997.00 09/14/2017 16:59:44 Sep 14 12:59 pm Sep 14 9:59 am
1997.00 09/14/2017 16:00:00 Sep 14 12:00 pm Sep 14 9:00 am
1997.00 09/14/2017 14:58:08 Sep 14 10:58 am Sep 14 7:58 am
2008.00 09/14/2017 13:58:24 Sep 14 09:58 am Sep 14 6:58 am
2011.00 09/14/2017 12:58:40 Sep 14 08:58 am Sep 14 5:58 am
1993.00 09/14/2017 11:58:56 Sep 14 07:58 am Sep 14 4:58 am
1986.00 09/14/2017 10:59:12 Sep 14 06:59 am Sep 14 3:59 am
1988.00 09/14/2017 09:59:28 Sep 14 05:59 am Sep 14 2:59 am
1993.00 09/14/2017 08:59:44 Sep 14 04:59 am Sep 14 1:59 am
1986.00 09/14/2017 08:00:00 Sep 14 04:00 am Sep 14 1:00 am
1981.00 09/14/2017 06:58:08 Sep 14 02:58 am Sep 13 11:58 pm
1986.00 09/14/2017 02:59:12 Sep 13 10:59 pm Sep 13 7:59 pm
1986.00 09/14/2017 01:59:28 Sep 13 09:59 pm Sep 13 6:59 pm
1985.00 09/14/2017 00:59:44 Sep 13 08:59 pm Sep 13 5:59 pm
1993.00 09/14/2017 00:00:00 Sep 13 08:00 pm Sep 13 5:00 pm
1986.00 09/13/2017 22:58:08 Sep 13 06:58 pm Sep 13 3:58 pm
1992.00 09/13/2017 21:58:24 Sep 13 05:58 pm Sep 13 2:58 pm
2000.00 09/13/2017 20:58:40 Sep 13 04:58 pm Sep 13 1:58 pm
1988.00 09/13/2017 19:58:56 Sep 13 03:58 pm Sep 13 12:58 pm
1997.00 09/13/2017 18:59:12 Sep 13 02:59 pm Sep 13 11:59 am
1997.00 09/13/2017 17:59:28 Sep 13 01:59 pm Sep 13 10:59 am
1997.00 09/13/2017 16:59:44 Sep 13 12:59 pm Sep 13 9:59 am
1989.00 09/13/2017 16:00:00 Sep 13 12:00 pm Sep 13 9:00 am
1994.00 09/13/2017 14:58:08 Sep 13 10:58 am Sep 13 7:58 am
1997.00 09/13/2017 13:58:24 Sep 13 09:58 am Sep 13 6:58 am
1989.00 09/13/2017 12:58:40 Sep 13 08:58 am Sep 13 5:58 am
1990.00 09/13/2017 11:58:56 Sep 13 07:58 am Sep 13 4:58 am
1993.00 09/13/2017 10:59:12 Sep 13 06:59 am Sep 13 3:59 am
1988.00 09/13/2017 09:59:28 Sep 13 05:59 am Sep 13 2:59 am
1990.00 09/13/2017 08:59:44 Sep 13 04:59 am Sep 13 1:59 am
1992.00 09/13/2017 08:00:00 Sep 13 04:00 am Sep 13 1:00 am
1985.00 09/13/2017 06:58:08 Sep 13 02:58 am Sep 12 11:58 pm
1981.00 09/13/2017 02:59:12 Sep 12 10:59 pm Sep 12 7:59 pm
1978.00 09/13/2017 01:59:28 Sep 12 09:59 pm Sep 12 6:59 pm
1977.00 09/13/2017 00:59:44 Sep 12 08:59 pm Sep 12 5:59 pm
1985.00 09/13/2017 00:00:00 Sep 12 08:00 pm Sep 12 5:00 pm
1977.00 09/12/2017 22:58:08 Sep 12 06:58 pm Sep 12 3:58 pm
1982.00 09/12/2017 21:58:24 Sep 12 05:58 pm Sep 12 2:58 pm
1990.00 09/12/2017 20:58:40 Sep 12 04:58 pm Sep 12 1:58 pm
1988.00 09/12/2017 19:58:56 Sep 12 03:58 pm Sep 12 12:58 pm
1988.00 09/12/2017 18:59:12 Sep 12 02:59 pm Sep 12 11:59 am
1985.00 09/12/2017 17:59:28 Sep 12 01:59 pm Sep 12 10:59 am
1986.00 09/12/2017 16:59:44 Sep 12 12:59 pm Sep 12 9:59 am
1985.00 09/12/2017 16:00:00 Sep 12 12:00 pm Sep 12 9:00 am
1980.00 09/12/2017 14:58:08 Sep 12 10:58 am Sep 12 7:58 am
1977.00 09/12/2017 13:58:24 Sep 12 09:58 am Sep 12 6:58 am
1981.00 09/12/2017 12:58:40 Sep 12 08:58 am Sep 12 5:58 am
1972.00 09/12/2017 11:58:56 Sep 12 07:58 am Sep 12 4:58 am
1974.00 09/12/2017 10:59:12 Sep 12 06:59 am Sep 12 3:59 am
1976.00 09/12/2017 09:59:28 Sep 12 05:59 am Sep 12 2:59 am
1964.00 09/12/2017 08:59:44 Sep 12 04:59 am Sep 12 1:59 am
1968.00 09/12/2017 08:00:00 Sep 12 04:00 am Sep 12 1:00 am
1958.00 09/12/2017 06:58:08 Sep 12 02:58 am Sep 11 11:58 pm
1962.00 09/12/2017 02:59:12 Sep 11 10:59 pm Sep 11 7:59 pm
1968.00 09/12/2017 01:59:28 Sep 11 09:59 pm Sep 11 6:59 pm
1974.00 09/12/2017 00:59:44 Sep 11 08:59 pm Sep 11 5:59 pm
1969.00 09/12/2017 00:00:00 Sep 11 08:00 pm Sep 11 5:00 pm
1973.00 09/11/2017 21:58:24 Sep 11 05:58 pm Sep 11 2:58 pm
1986.00 09/11/2017 20:58:40 Sep 11 04:58 pm Sep 11 1:58 pm
1990.00 09/11/2017 19:58:56 Sep 11 03:58 pm Sep 11 12:58 pm
1992.00 09/11/2017 18:59:12 Sep 11 02:59 pm Sep 11 11:59 am
2000.00 09/11/2017 17:59:28 Sep 11 01:59 pm Sep 11 10:59 am
2008.00 09/11/2017 16:59:44 Sep 11 12:59 pm Sep 11 9:59 am
2011.00 09/11/2017 16:00:00 Sep 11 12:00 pm Sep 11 9:00 am
2013.00 09/11/2017 14:58:08 Sep 11 10:58 am Sep 11 7:58 am
2017.00 09/11/2017 13:58:24 Sep 11 09:58 am Sep 11 6:58 am
2027.00 09/11/2017 12:58:40 Sep 11 08:58 am Sep 11 5:58 am
2021.00 09/11/2017 11:58:56 Sep 11 07:58 am Sep 11 4:58 am
2009.00 09/11/2017 10:59:12 Sep 11 06:59 am Sep 11 3:59 am
2008.00 09/11/2017 09:59:28 Sep 11 05:59 am Sep 11 2:59 am
2004.00 09/11/2017 08:59:44 Sep 11 04:59 am Sep 11 1:59 am
2005.00 09/11/2017 08:00:00 Sep 11 04:00 am Sep 11 1:00 am
2001.00 09/11/2017 06:58:08 Sep 11 02:58 am Sep 10 11:58 pm
1997.00 09/11/2017 02:59:12 Sep 10 10:59 pm Sep 10 7:59 pm
2001.00 09/11/2017 01:59:28 Sep 10 09:59 pm Sep 10 6:59 pm
1986.00 09/11/2017 00:59:44 Sep 10 08:59 pm Sep 10 5:59 pm
2000.00 09/11/2017 00:00:00 Sep 10 08:00 pm Sep 10 5:00 pm
2000.00 09/10/2017 22:58:08 Sep 10 06:58 pm Sep 10 3:58 pm
1990.00 09/10/2017 21:58:24 Sep 10 05:58 pm Sep 10 2:58 pm
1997.00 09/10/2017 20:58:40 Sep 10 04:58 pm Sep 10 1:58 pm
1988.00 09/10/2017 19:58:56 Sep 10 03:58 pm Sep 10 12:58 pm
1988.00 09/10/2017 18:59:12 Sep 10 02:59 pm Sep 10 11:59 am
1985.00 09/10/2017 17:59:28 Sep 10 01:59 pm Sep 10 10:59 am
1989.00 09/10/2017 16:59:44 Sep 10 12:59 pm Sep 10 9:59 am
1994.00 09/10/2017 16:00:00 Sep 10 12:00 pm Sep 10 9:00 am
1984.00 09/10/2017 14:58:08 Sep 10 10:58 am Sep 10 7:58 am
1992.00 09/10/2017 13:58:24 Sep 10 09:58 am Sep 10 6:58 am
1992.00 09/10/2017 12:58:40 Sep 10 08:58 am Sep 10 5:58 am
1985.00 09/10/2017 11:58:56 Sep 10 07:58 am Sep 10 4:58 am
1993.00 09/10/2017 10:59:12 Sep 10 06:59 am Sep 10 3:59 am
1990.00 09/10/2017 09:59:28 Sep 10 05:59 am Sep 10 2:59 am
1988.00 09/10/2017 08:59:44 Sep 10 04:59 am Sep 10 1:59 am
1985.00 09/10/2017 08:00:00 Sep 10 04:00 am Sep 10 1:00 am
1992.00 09/10/2017 06:58:08 Sep 10 02:58 am Sep 9 11:58 pm
1986.00 09/10/2017 02:59:12 Sep 9 10:59 pm Sep 9 7:59 pm
1996.00 09/10/2017 01:59:28 Sep 9 09:59 pm Sep 9 6:59 pm
1990.00 09/10/2017 00:59:44 Sep 9 08:59 pm Sep 9 5:59 pm
1989.00 09/10/2017 00:00:00 Sep 9 08:00 pm Sep 9 5:00 pm
1994.00 09/09/2017 22:58:08 Sep 9 06:58 pm Sep 9 3:58 pm
1993.00 09/09/2017 21:58:24 Sep 9 05:58 pm Sep 9 2:58 pm
1988.00 09/09/2017 20:58:40 Sep 9 04:58 pm Sep 9 1:58 pm
1996.00 09/09/2017 19:58:56 Sep 9 03:58 pm Sep 9 12:58 pm
2000.00 09/09/2017 18:59:12 Sep 9 02:59 pm Sep 9 11:59 am
1989.00 09/09/2017 17:59:28 Sep 9 01:59 pm Sep 9 10:59 am
1994.00 09/09/2017 16:59:44 Sep 9 12:59 pm Sep 9 9:59 am
1990.00 09/09/2017 16:00:00 Sep 9 12:00 pm Sep 9 9:00 am
1986.00 09/09/2017 14:58:08 Sep 9 10:58 am Sep 9 7:58 am
1980.00 09/09/2017 13:58:24 Sep 9 09:58 am Sep 9 6:58 am
1978.00 09/09/2017 12:58:40 Sep 9 08:58 am Sep 9 5:58 am
1973.00 09/09/2017 11:58:56 Sep 9 07:58 am Sep 9 4:58 am
1972.00 09/09/2017 10:59:12 Sep 9 06:59 am Sep 9 3:59 am
1972.00 09/09/2017 09:59:28 Sep 9 05:59 am Sep 9 2:59 am
1973.00 09/09/2017 08:59:44 Sep 9 04:59 am Sep 9 1:59 am
1974.00 09/09/2017 08:00:00 Sep 9 04:00 am Sep 9 1:00 am
1958.00 09/09/2017 06:58:08 Sep 9 02:58 am Sep 8 11:58 pm
1961.00 09/09/2017 02:59:12 Sep 8 10:59 pm Sep 8 7:59 pm
1961.00 09/09/2017 01:59:28 Sep 8 09:59 pm Sep 8 6:59 pm
1968.00 09/09/2017 00:59:44 Sep 8 08:59 pm Sep 8 5:59 pm
1958.00 09/09/2017 00:00:00 Sep 8 08:00 pm Sep 8 5:00 pm
1958.00 09/08/2017 22:58:08 Sep 8 06:58 pm Sep 8 3:58 pm
1968.00 09/08/2017 21:58:24 Sep 8 05:58 pm Sep 8 2:58 pm
1960.00 09/08/2017 20:58:40 Sep 8 04:58 pm Sep 8 1:58 pm
1957.00 09/08/2017 19:58:56 Sep 8 03:58 pm Sep 8 12:58 pm
1950.00 09/08/2017 18:59:12 Sep 8 02:59 pm Sep 8 11:59 am
1956.00 09/08/2017 17:59:28 Sep 8 01:59 pm Sep 8 10:59 am
1954.00 09/08/2017 16:59:44 Sep 8 12:59 pm Sep 8 9:59 am
1957.00 09/08/2017 16:00:00 Sep 8 12:00 pm Sep 8 9:00 am
1956.00 09/08/2017 14:58:08 Sep 8 10:58 am Sep 8 7:58 am
1958.00 09/08/2017 13:58:24 Sep 8 09:58 am Sep 8 6:58 am
1961.00 09/08/2017 12:58:40 Sep 8 08:58 am Sep 8 5:58 am
1964.00 09/08/2017 11:58:56 Sep 8 07:58 am Sep 8 4:58 am
1956.00 09/08/2017 10:59:12 Sep 8 06:59 am Sep 8 3:59 am
1933.00 09/08/2017 09:59:28 Sep 8 05:59 am Sep 8 2:59 am
1933.00 09/08/2017 08:00:00 Sep 8 04:00 am Sep 8 1:00 am
1933.00 09/08/2017 06:58:08 Sep 8 02:58 am Sep 7 11:58 pm
1964.00 09/08/2017 02:59:12 Sep 7 10:59 pm Sep 7 7:59 pm
1974.00 09/08/2017 01:59:28 Sep 7 09:59 pm Sep 7 6:59 pm
1976.00 09/08/2017 00:59:44 Sep 7 08:59 pm Sep 7 5:59 pm
1881.00 09/07/2017 20:58:40 Sep 7 04:58 pm Sep 7 1:58 pm
1867.00 09/07/2017 19:58:56 Sep 7 03:58 pm Sep 7 12:58 pm
1871.00 09/07/2017 18:59:12 Sep 7 02:59 pm Sep 7 11:59 am
1866.00 09/07/2017 17:59:28 Sep 7 01:59 pm Sep 7 10:59 am
1858.00 09/07/2017 16:59:44 Sep 7 12:59 pm Sep 7 9:59 am
1871.00 09/07/2017 16:00:00 Sep 7 12:00 pm Sep 7 9:00 am
1875.00 09/07/2017 14:58:08 Sep 7 10:58 am Sep 7 7:58 am
1870.00 09/07/2017 13:58:24 Sep 7 09:58 am Sep 7 6:58 am
1875.00 09/07/2017 12:58:40 Sep 7 08:58 am Sep 7 5:58 am
1884.00 09/07/2017 11:58:56 Sep 7 07:58 am Sep 7 4:58 am
1871.00 09/07/2017 10:59:12 Sep 7 06:59 am Sep 7 3:59 am
1877.00 09/07/2017 09:59:28 Sep 7 05:59 am Sep 7 2:59 am
1879.00 09/07/2017 08:59:44 Sep 7 04:59 am Sep 7 1:59 am
1946.00 09/07/2017 08:00:00 Sep 7 04:00 am Sep 7 1:00 am
2050.00 09/07/2017 06:58:08 Sep 7 02:58 am Sep 6 11:58 pm
2116.00 09/07/2017 02:59:12 Sep 6 10:59 pm Sep 6 7:59 pm
2135.00 09/07/2017 01:59:28 Sep 6 09:59 pm Sep 6 6:59 pm
2145.00 09/07/2017 00:59:44 Sep 6 08:59 pm Sep 6 5:59 pm
2157.00 09/07/2017 00:00:00 Sep 6 08:00 pm Sep 6 5:00 pm
2140.00 09/06/2017 22:58:08 Sep 6 06:58 pm Sep 6 3:58 pm
2096.00 09/06/2017 21:58:24 Sep 6 05:58 pm Sep 6 2:58 pm
2054.00 09/06/2017 20:58:40 Sep 6 04:58 pm Sep 6 1:58 pm
2047.00 09/06/2017 19:58:56 Sep 6 03:58 pm Sep 6 12:58 pm
2062.00 09/06/2017 18:59:12 Sep 6 02:59 pm Sep 6 11:59 am

Status

Gauge History

Times listed in GMT 24h, ET and PT hours provided for convenience Graphs in GMT. Readings of "n/a" constitute a frozen gauge or gauge error.
Reading Updated (GMT) Eastern Pacific Comment
running 09/21/2017 14:58:08 Sep 21 10:58 am Sep 21 7:58 am
running 09/21/2017 13:58:24 Sep 21 09:58 am Sep 21 6:58 am
running 09/21/2017 11:58:56 Sep 21 07:58 am Sep 21 4:58 am
running 09/21/2017 10:59:12 Sep 21 06:59 am Sep 21 3:59 am
running 09/21/2017 08:59:44 Sep 21 04:59 am Sep 21 1:59 am
running 09/21/2017 08:00:00 Sep 21 04:00 am Sep 21 1:00 am
running 09/21/2017 06:58:08 Sep 21 02:58 am Sep 20 11:58 pm
running 09/21/2017 02:59:12 Sep 20 10:59 pm Sep 20 7:59 pm
running 09/21/2017 01:59:28 Sep 20 09:59 pm Sep 20 6:59 pm
running 09/21/2017 00:00:00 Sep 20 08:00 pm Sep 20 5:00 pm
running 09/20/2017 21:58:24 Sep 20 05:58 pm Sep 20 2:58 pm
running 09/20/2017 20:58:40 Sep 20 04:58 pm Sep 20 1:58 pm
running 09/20/2017 19:58:56 Sep 20 03:58 pm Sep 20 12:58 pm
running 09/20/2017 18:59:12 Sep 20 02:59 pm Sep 20 11:59 am
running 09/20/2017 17:59:28 Sep 20 01:59 pm Sep 20 10:59 am
running 09/20/2017 16:00:00 Sep 20 12:00 pm Sep 20 9:00 am
running 09/20/2017 13:58:24 Sep 20 09:58 am Sep 20 6:58 am
running 09/20/2017 11:58:56 Sep 20 07:58 am Sep 20 4:58 am
running 09/20/2017 10:59:12 Sep 20 06:59 am Sep 20 3:59 am
running 09/20/2017 09:59:28 Sep 20 05:59 am Sep 20 2:59 am
running 09/20/2017 08:00:00 Sep 20 04:00 am Sep 20 1:00 am
running 09/20/2017 06:58:08 Sep 20 02:58 am Sep 19 11:58 pm
running 09/19/2017 21:58:24 Sep 19 05:58 pm Sep 19 2:58 pm
running 09/19/2017 19:58:56 Sep 19 03:58 pm Sep 19 12:58 pm
running 09/19/2017 17:59:28 Sep 19 01:59 pm Sep 19 10:59 am
running 09/19/2017 16:00:00 Sep 19 12:00 pm Sep 19 9:00 am
running 09/19/2017 13:58:24 Sep 19 09:58 am Sep 19 6:58 am
running 09/19/2017 11:58:56 Sep 19 07:58 am Sep 19 4:58 am
running 09/19/2017 10:59:12 Sep 19 06:59 am Sep 19 3:59 am
running 09/19/2017 09:59:28 Sep 19 05:59 am Sep 19 2:59 am
running 09/19/2017 08:00:00 Sep 19 04:00 am Sep 19 1:00 am
running 09/19/2017 06:58:08 Sep 19 02:58 am Sep 18 11:58 pm
running 09/19/2017 01:59:28 Sep 18 09:59 pm Sep 18 6:59 pm
running 09/19/2017 00:00:00 Sep 18 08:00 pm Sep 18 5:00 pm
running 09/18/2017 21:58:24 Sep 18 05:58 pm Sep 18 2:58 pm
running 09/18/2017 19:58:56 Sep 18 03:58 pm Sep 18 12:58 pm
running 09/18/2017 18:59:12 Sep 18 02:59 pm Sep 18 11:59 am
running 09/18/2017 17:59:28 Sep 18 01:59 pm Sep 18 10:59 am
running 09/18/2017 16:00:00 Sep 18 12:00 pm Sep 18 9:00 am
running 09/18/2017 14:58:08 Sep 18 10:58 am Sep 18 7:58 am
running 09/18/2017 13:58:24 Sep 18 09:58 am Sep 18 6:58 am
running 09/18/2017 12:58:40 Sep 18 08:58 am Sep 18 5:58 am
running 09/18/2017 11:58:56 Sep 18 07:58 am Sep 18 4:58 am
running 09/18/2017 10:59:12 Sep 18 06:59 am Sep 18 3:59 am
running 09/18/2017 09:59:28 Sep 18 05:59 am Sep 18 2:59 am
running 09/18/2017 08:59:44 Sep 18 04:59 am Sep 18 1:59 am
running 09/18/2017 08:00:00 Sep 18 04:00 am Sep 18 1:00 am
running 09/18/2017 02:59:12 Sep 17 10:59 pm Sep 17 7:59 pm
running 09/18/2017 01:59:28 Sep 17 09:59 pm Sep 17 6:59 pm
running 09/18/2017 00:59:44 Sep 17 08:59 pm Sep 17 5:59 pm
running 09/18/2017 00:00:00 Sep 17 08:00 pm Sep 17 5:00 pm
running 09/17/2017 21:58:24 Sep 17 05:58 pm Sep 17 2:58 pm
running 09/17/2017 20:58:40 Sep 17 04:58 pm Sep 17 1:58 pm
running 09/17/2017 19:58:56 Sep 17 03:58 pm Sep 17 12:58 pm
running 09/17/2017 17:59:28 Sep 17 01:59 pm Sep 17 10:59 am
running 09/17/2017 16:59:44 Sep 17 12:59 pm Sep 17 9:59 am
running 09/17/2017 16:00:00 Sep 17 12:00 pm Sep 17 9:00 am
running 09/17/2017 14:58:08 Sep 17 10:58 am Sep 17 7:58 am
running 09/17/2017 13:58:24 Sep 17 09:58 am Sep 17 6:58 am
running 09/17/2017 12:58:40 Sep 17 08:58 am Sep 17 5:58 am
running 09/17/2017 11:58:56 Sep 17 07:58 am Sep 17 4:58 am
running 09/17/2017 09:59:28 Sep 17 05:59 am Sep 17 2:59 am
running 09/17/2017 08:59:44 Sep 17 04:59 am Sep 17 1:59 am
running 09/17/2017 08:00:00 Sep 17 04:00 am Sep 17 1:00 am
running 09/17/2017 06:58:08 Sep 17 02:58 am Sep 16 11:58 pm
running 09/17/2017 02:59:12 Sep 16 10:59 pm Sep 16 7:59 pm
running 09/17/2017 01:59:28 Sep 16 09:59 pm Sep 16 6:59 pm
running 09/17/2017 00:59:44 Sep 16 08:59 pm Sep 16 5:59 pm
running 09/17/2017 00:00:00 Sep 16 08:00 pm Sep 16 5:00 pm
running 09/16/2017 21:58:24 Sep 16 05:58 pm Sep 16 2:58 pm
running 09/16/2017 19:58:56 Sep 16 03:58 pm Sep 16 12:58 pm
running 09/16/2017 17:59:28 Sep 16 01:59 pm Sep 16 10:59 am
running 09/16/2017 16:59:44 Sep 16 12:59 pm Sep 16 9:59 am
running 09/16/2017 16:00:00 Sep 16 12:00 pm Sep 16 9:00 am
running 09/16/2017 14:58:08 Sep 16 10:58 am Sep 16 7:58 am
running 09/16/2017 13:58:24 Sep 16 09:58 am Sep 16 6:58 am
running 09/16/2017 12:58:40 Sep 16 08:58 am Sep 16 5:58 am
running 09/16/2017 11:58:56 Sep 16 07:58 am Sep 16 4:58 am
running 09/16/2017 10:59:12 Sep 16 06:59 am Sep 16 3:59 am
running 09/16/2017 09:59:28 Sep 16 05:59 am Sep 16 2:59 am
running 09/16/2017 08:59:44 Sep 16 04:59 am Sep 16 1:59 am
running 09/16/2017 08:00:00 Sep 16 04:00 am Sep 16 1:00 am
running 09/16/2017 06:58:08 Sep 16 02:58 am Sep 15 11:58 pm
running 09/16/2017 02:59:12 Sep 15 10:59 pm Sep 15 7:59 pm
running 09/16/2017 01:59:28 Sep 15 09:59 pm Sep 15 6:59 pm
running 09/16/2017 00:59:44 Sep 15 08:59 pm Sep 15 5:59 pm
running 09/16/2017 00:00:00 Sep 15 08:00 pm Sep 15 5:00 pm
running 09/15/2017 21:58:24 Sep 15 05:58 pm Sep 15 2:58 pm
running 09/15/2017 20:58:40 Sep 15 04:58 pm Sep 15 1:58 pm
running 09/15/2017 19:58:56 Sep 15 03:58 pm Sep 15 12:58 pm
running 09/15/2017 18:59:12 Sep 15 02:59 pm Sep 15 11:59 am
running 09/15/2017 17:59:28 Sep 15 01:59 pm Sep 15 10:59 am
running 09/15/2017 16:00:00 Sep 15 12:00 pm Sep 15 9:00 am
running 09/15/2017 14:58:08 Sep 15 10:58 am Sep 15 7:58 am
running 09/15/2017 13:58:24 Sep 15 09:58 am Sep 15 6:58 am
running 09/15/2017 12:58:40 Sep 15 08:58 am Sep 15 5:58 am
running 09/15/2017 11:58:56 Sep 15 07:58 am Sep 15 4:58 am
running 09/15/2017 10:59:12 Sep 15 06:59 am Sep 15 3:59 am
running 09/15/2017 09:59:28 Sep 15 05:59 am Sep 15 2:59 am
running 09/15/2017 08:59:44 Sep 15 04:59 am Sep 15 1:59 am
running 09/15/2017 08:00:00 Sep 15 04:00 am Sep 15 1:00 am
running 09/15/2017 06:58:08 Sep 15 02:58 am Sep 14 11:58 pm
running 09/15/2017 02:59:12 Sep 14 10:59 pm Sep 14 7:59 pm
running 09/15/2017 01:59:28 Sep 14 09:59 pm Sep 14 6:59 pm
running 09/15/2017 00:59:44 Sep 14 08:59 pm Sep 14 5:59 pm
running 09/15/2017 00:00:00 Sep 14 08:00 pm Sep 14 5:00 pm
running 09/14/2017 21:58:24 Sep 14 05:58 pm Sep 14 2:58 pm
running 09/14/2017 19:58:56 Sep 14 03:58 pm Sep 14 12:58 pm
running 09/14/2017 17:59:28 Sep 14 01:59 pm Sep 14 10:59 am
running 09/14/2017 16:00:00 Sep 14 12:00 pm Sep 14 9:00 am
running 09/14/2017 13:58:24 Sep 14 09:58 am Sep 14 6:58 am
running 09/14/2017 11:58:56 Sep 14 07:58 am Sep 14 4:58 am
running 09/14/2017 09:59:28 Sep 14 05:59 am Sep 14 2:59 am
running 09/14/2017 08:59:44 Sep 14 04:59 am Sep 14 1:59 am
running 09/14/2017 08:00:00 Sep 14 04:00 am Sep 14 1:00 am
running 09/14/2017 06:58:08 Sep 14 02:58 am Sep 13 11:58 pm
running 09/14/2017 02:59:12 Sep 13 10:59 pm Sep 13 7:59 pm
running 09/14/2017 01:59:28 Sep 13 09:59 pm Sep 13 6:59 pm
running 09/14/2017 00:59:44 Sep 13 08:59 pm Sep 13 5:59 pm
running 09/14/2017 00:00:00 Sep 13 08:00 pm Sep 13 5:00 pm
running 09/13/2017 21:58:24 Sep 13 05:58 pm Sep 13 2:58 pm
running 09/13/2017 20:58:40 Sep 13 04:58 pm Sep 13 1:58 pm
running 09/13/2017 19:58:56 Sep 13 03:58 pm Sep 13 12:58 pm
running 09/13/2017 18:59:12 Sep 13 02:59 pm Sep 13 11:59 am
running 09/13/2017 17:59:28 Sep 13 01:59 pm Sep 13 10:59 am
running 09/13/2017 16:59:44 Sep 13 12:59 pm Sep 13 9:59 am
running 09/13/2017 16:00:00 Sep 13 12:00 pm Sep 13 9:00 am
running 09/13/2017 14:58:08 Sep 13 10:58 am Sep 13 7:58 am
running 09/13/2017 13:58:24 Sep 13 09:58 am Sep 13 6:58 am
running 09/13/2017 12:58:40 Sep 13 08:58 am Sep 13 5:58 am
running 09/13/2017 11:58:56 Sep 13 07:58 am Sep 13 4:58 am
running 09/13/2017 10:59:12 Sep 13 06:59 am Sep 13 3:59 am
running 09/13/2017 09:59:28 Sep 13 05:59 am Sep 13 2:59 am
running 09/13/2017 08:59:44 Sep 13 04:59 am Sep 13 1:59 am
running 09/13/2017 08:00:00 Sep 13 04:00 am Sep 13 1:00 am
running 09/13/2017 06:58:08 Sep 13 02:58 am Sep 12 11:58 pm
running 09/13/2017 01:59:28 Sep 12 09:59 pm Sep 12 6:59 pm
running 09/13/2017 00:00:00 Sep 12 08:00 pm Sep 12 5:00 pm
running 09/12/2017 21:58:24 Sep 12 05:58 pm Sep 12 2:58 pm
running 09/12/2017 20:58:40 Sep 12 04:58 pm Sep 12 1:58 pm
running 09/12/2017 19:58:56 Sep 12 03:58 pm Sep 12 12:58 pm
running 09/12/2017 18:59:12 Sep 12 02:59 pm Sep 12 11:59 am
running 09/12/2017 17:59:28 Sep 12 01:59 pm Sep 12 10:59 am
running 09/12/2017 16:00:00 Sep 12 12:00 pm Sep 12 9:00 am
running 09/12/2017 14:58:08 Sep 12 10:58 am Sep 12 7:58 am
running 09/12/2017 13:58:24 Sep 12 09:58 am Sep 12 6:58 am
running 09/12/2017 12:58:40 Sep 12 08:58 am Sep 12 5:58 am
running 09/12/2017 11:58:56 Sep 12 07:58 am Sep 12 4:58 am
running 09/12/2017 09:59:28 Sep 12 05:59 am Sep 12 2:59 am
running 09/12/2017 08:59:44 Sep 12 04:59 am Sep 12 1:59 am
running 09/12/2017 08:00:00 Sep 12 04:00 am Sep 12 1:00 am
running 09/12/2017 06:58:08 Sep 12 02:58 am Sep 11 11:58 pm
running 09/12/2017 02:59:12 Sep 11 10:59 pm Sep 11 7:59 pm
running 09/12/2017 01:59:28 Sep 11 09:59 pm Sep 11 6:59 pm
running 09/12/2017 00:59:44 Sep 11 08:59 pm Sep 11 5:59 pm
running 09/12/2017 00:00:00 Sep 11 08:00 pm Sep 11 5:00 pm
running 09/11/2017 21:58:24 Sep 11 05:58 pm Sep 11 2:58 pm
running 09/11/2017 20:58:40 Sep 11 04:58 pm Sep 11 1:58 pm
running 09/11/2017 19:58:56 Sep 11 03:58 pm Sep 11 12:58 pm
running 09/11/2017 18:59:12 Sep 11 02:59 pm Sep 11 11:59 am
running 09/11/2017 17:59:28 Sep 11 01:59 pm Sep 11 10:59 am
running 09/11/2017 16:59:44 Sep 11 12:59 pm Sep 11 9:59 am
running 09/11/2017 16:00:00 Sep 11 12:00 pm Sep 11 9:00 am
running 09/11/2017 14:58:08 Sep 11 10:58 am Sep 11 7:58 am
running 09/11/2017 13:58:24 Sep 11 09:58 am Sep 11 6:58 am
running 09/11/2017 12:58:40 Sep 11 08:58 am Sep 11 5:58 am
running 09/11/2017 11:58:56 Sep 11 07:58 am Sep 11 4:58 am
running 09/11/2017 10:59:12 Sep 11 06:59 am Sep 11 3:59 am
running 09/11/2017 09:59:28 Sep 11 05:59 am Sep 11 2:59 am
running 09/11/2017 08:59:44 Sep 11 04:59 am Sep 11 1:59 am
running 09/11/2017 08:00:00 Sep 11 04:00 am Sep 11 1:00 am
running 09/11/2017 06:58:08 Sep 11 02:58 am Sep 10 11:58 pm
running 09/11/2017 02:59:12 Sep 10 10:59 pm Sep 10 7:59 pm
running 09/11/2017 01:59:28 Sep 10 09:59 pm Sep 10 6:59 pm
running 09/11/2017 00:59:44 Sep 10 08:59 pm Sep 10 5:59 pm
running 09/11/2017 00:00:00 Sep 10 08:00 pm Sep 10 5:00 pm
running 09/10/2017 21:58:24 Sep 10 05:58 pm Sep 10 2:58 pm
running 09/10/2017 20:58:40 Sep 10 04:58 pm Sep 10 1:58 pm
running 09/10/2017 19:58:56 Sep 10 03:58 pm Sep 10 12:58 pm
running 09/10/2017 18:59:12 Sep 10 02:59 pm Sep 10 11:59 am
running 09/10/2017 17:59:28 Sep 10 01:59 pm Sep 10 10:59 am
running 09/10/2017 16:59:44 Sep 10 12:59 pm Sep 10 9:59 am
running 09/10/2017 16:00:00 Sep 10 12:00 pm Sep 10 9:00 am
running 09/10/2017 14:58:08 Sep 10 10:58 am Sep 10 7:58 am
running 09/10/2017 13:58:24 Sep 10 09:58 am Sep 10 6:58 am
running 09/10/2017 12:58:40 Sep 10 08:58 am Sep 10 5:58 am
running 09/10/2017 11:58:56 Sep 10 07:58 am Sep 10 4:58 am
running 09/10/2017 10:59:12 Sep 10 06:59 am Sep 10 3:59 am
running 09/10/2017 09:59:28 Sep 10 05:59 am Sep 10 2:59 am
running 09/10/2017 08:59:44 Sep 10 04:59 am Sep 10 1:59 am
running 09/10/2017 08:00:00 Sep 10 04:00 am Sep 10 1:00 am
running 09/10/2017 06:58:08 Sep 10 02:58 am Sep 9 11:58 pm
running 09/10/2017 02:59:12 Sep 9 10:59 pm Sep 9 7:59 pm
running 09/10/2017 01:59:28 Sep 9 09:59 pm Sep 9 6:59 pm
running 09/10/2017 00:59:44 Sep 9 08:59 pm Sep 9 5:59 pm
running 09/10/2017 00:00:00 Sep 9 08:00 pm Sep 9 5:00 pm
running 09/09/2017 21:58:24 Sep 9 05:58 pm Sep 9 2:58 pm
running 09/09/2017 20:58:40 Sep 9 04:58 pm Sep 9 1:58 pm
running 09/09/2017 19:58:56 Sep 9 03:58 pm Sep 9 12:58 pm
running 09/09/2017 17:59:28 Sep 9 01:59 pm Sep 9 10:59 am
running 09/09/2017 16:00:00 Sep 9 12:00 pm Sep 9 9:00 am
running 09/09/2017 14:58:08 Sep 9 10:58 am Sep 9 7:58 am
running 09/09/2017 13:58:24 Sep 9 09:58 am Sep 9 6:58 am
running 09/09/2017 12:58:40 Sep 9 08:58 am Sep 9 5:58 am
running 09/09/2017 11:58:56 Sep 9 07:58 am Sep 9 4:58 am
running 09/09/2017 10:59:12 Sep 9 06:59 am Sep 9 3:59 am
running 09/09/2017 09:59:28 Sep 9 05:59 am Sep 9 2:59 am
running 09/09/2017 08:59:44 Sep 9 04:59 am Sep 9 1:59 am
running 09/09/2017 08:00:00 Sep 9 04:00 am Sep 9 1:00 am
running 09/09/2017 06:58:08 Sep 9 02:58 am Sep 8 11:58 pm
running 09/09/2017 02:59:12 Sep 8 10:59 pm Sep 8 7:59 pm
running 09/09/2017 01:59:28 Sep 8 09:59 pm Sep 8 6:59 pm
running 09/09/2017 00:59:44 Sep 8 08:59 pm Sep 8 5:59 pm
running 09/09/2017 00:00:00 Sep 8 08:00 pm Sep 8 5:00 pm
running 09/08/2017 21:58:24 Sep 8 05:58 pm Sep 8 2:58 pm
running 09/08/2017 20:58:40 Sep 8 04:58 pm Sep 8 1:58 pm
running 09/08/2017 19:58:56 Sep 8 03:58 pm Sep 8 12:58 pm
running 09/08/2017 17:59:28 Sep 8 01:59 pm Sep 8 10:59 am
running 09/08/2017 16:59:44 Sep 8 12:59 pm Sep 8 9:59 am
running 09/08/2017 16:00:00 Sep 8 12:00 pm Sep 8 9:00 am
running 09/08/2017 14:58:08 Sep 8 10:58 am Sep 8 7:58 am
running 09/08/2017 13:58:24 Sep 8 09:58 am Sep 8 6:58 am
running 09/08/2017 12:58:40 Sep 8 08:58 am Sep 8 5:58 am
running 09/08/2017 11:58:56 Sep 8 07:58 am Sep 8 4:58 am
running 09/08/2017 10:59:12 Sep 8 06:59 am Sep 8 3:59 am
running 09/08/2017 09:59:28 Sep 8 05:59 am Sep 8 2:59 am
running 09/08/2017 08:00:00 Sep 8 04:00 am Sep 8 1:00 am
running 09/08/2017 06:58:08 Sep 8 02:58 am Sep 7 11:58 pm
running 09/08/2017 02:59:12 Sep 7 10:59 pm Sep 7 7:59 pm
running 09/08/2017 01:59:28 Sep 7 09:59 pm Sep 7 6:59 pm
running 09/08/2017 00:59:44 Sep 7 08:59 pm Sep 7 5:59 pm
running 09/07/2017 20:58:40 Sep 7 04:58 pm Sep 7 1:58 pm
running 09/07/2017 19:58:56 Sep 7 03:58 pm Sep 7 12:58 pm
running 09/07/2017 18:59:12 Sep 7 02:59 pm Sep 7 11:59 am
running 09/07/2017 17:59:28 Sep 7 01:59 pm Sep 7 10:59 am
running 09/07/2017 16:59:44 Sep 7 12:59 pm Sep 7 9:59 am
running 09/07/2017 16:00:00 Sep 7 12:00 pm Sep 7 9:00 am
running 09/07/2017 14:58:08 Sep 7 10:58 am Sep 7 7:58 am
running 09/07/2017 13:58:24 Sep 7 09:58 am Sep 7 6:58 am
running 09/07/2017 12:58:40 Sep 7 08:58 am Sep 7 5:58 am
running 09/07/2017 11:58:56 Sep 7 07:58 am Sep 7 4:58 am
running 09/07/2017 10:59:12 Sep 7 06:59 am Sep 7 3:59 am
running 09/07/2017 09:59:28 Sep 7 05:59 am Sep 7 2:59 am
running 09/07/2017 08:59:44 Sep 7 04:59 am Sep 7 1:59 am
running 09/07/2017 08:00:00 Sep 7 04:00 am Sep 7 1:00 am
running 09/07/2017 06:58:08 Sep 7 02:58 am Sep 6 11:58 pm
running 09/07/2017 02:59:12 Sep 6 10:59 pm Sep 6 7:59 pm
running 09/07/2017 01:59:28 Sep 6 09:59 pm Sep 6 6:59 pm
running 09/07/2017 00:59:44 Sep 6 08:59 pm Sep 6 5:59 pm
running 09/07/2017 00:00:00 Sep 6 08:00 pm Sep 6 5:00 pm
running 09/06/2017 22:58:08 Sep 6 06:58 pm Sep 6 3:58 pm
running 09/06/2017 21:58:24 Sep 6 05:58 pm Sep 6 2:58 pm
running 09/06/2017 20:58:40 Sep 6 04:58 pm Sep 6 1:58 pm
running 09/06/2017 19:58:56 Sep 6 03:58 pm Sep 6 12:58 pm
running 09/06/2017 17:59:28 Sep 6 01:59 pm Sep 6 10:59 am
running 09/06/2017 16:00:00 Sep 6 12:00 pm Sep 6 9:00 am
running 09/06/2017 13:58:24 Sep 6 09:58 am Sep 6 6:58 am
running 09/06/2017 11:58:56 Sep 6 07:58 am Sep 6 4:58 am
running 09/06/2017 10:59:12 Sep 6 06:59 am Sep 6 3:59 am
running 09/06/2017 09:59:28 Sep 6 05:59 am Sep 6 2:59 am
running 09/06/2017 08:59:44 Sep 6 04:59 am Sep 6 1:59 am
running 09/06/2017 08:00:00 Sep 6 04:00 am Sep 6 1:00 am
running 09/06/2017 06:58:08 Sep 6 02:58 am Sep 5 11:58 pm
running 09/06/2017 02:59:12 Sep 5 10:59 pm Sep 5 7:59 pm
running 09/06/2017 01:59:28 Sep 5 09:59 pm Sep 5 6:59 pm
running 09/06/2017 00:59:44 Sep 5 08:59 pm Sep 5 5:59 pm
running 09/06/2017 00:00:00 Sep 5 08:00 pm Sep 5 5:00 pm
running 09/05/2017 21:58:24 Sep 5 05:58 pm Sep 5 2:58 pm
running 09/05/2017 20:58:40 Sep 5 04:58 pm Sep 5 1:58 pm
running 09/05/2017 19:58:56 Sep 5 03:58 pm Sep 5 12:58 pm
running 09/05/2017 18:59:12 Sep 5 02:59 pm Sep 5 11:59 am
running 09/05/2017 17:59:28 Sep 5 01:59 pm Sep 5 10:59 am
running 09/05/2017 16:59:44 Sep 5 12:59 pm Sep 5 9:59 am
running 09/05/2017 16:00:00 Sep 5 12:00 pm Sep 5 9:00 am
running 09/05/2017 14:58:08 Sep 5 10:58 am Sep 5 7:58 am
running 09/05/2017 13:58:24 Sep 5 09:58 am Sep 5 6:58 am
running 09/05/2017 12:58:40 Sep 5 08:58 am Sep 5 5:58 am
running 09/05/2017 11:58:56 Sep 5 07:58 am Sep 5 4:58 am
running 09/05/2017 10:59:12 Sep 5 06:59 am Sep 5 3:59 am
running 09/05/2017 09:59:28 Sep 5 05:59 am Sep 5 2:59 am
running 09/05/2017 08:59:44 Sep 5 04:59 am Sep 5 1:59 am
running 09/05/2017 02:59:12 Sep 4 10:59 pm Sep 4 7:59 pm
running 09/05/2017 01:59:28 Sep 4 09:59 pm Sep 4 6:59 pm
running 09/05/2017 00:59:44 Sep 4 08:59 pm Sep 4 5:59 pm
running 09/05/2017 00:00:00 Sep 4 08:00 pm Sep 4 5:00 pm
running 09/04/2017 22:58:08 Sep 4 06:58 pm Sep 4 3:58 pm
running 09/04/2017 21:58:24 Sep 4 05:58 pm Sep 4 2:58 pm
running 09/04/2017 20:58:40 Sep 4 04:58 pm Sep 4 1:58 pm
running 09/04/2017 19:58:56 Sep 4 03:58 pm Sep 4 12:58 pm
running 09/04/2017 18:59:12 Sep 4 02:59 pm Sep 4 11:59 am
running 09/04/2017 17:59:28 Sep 4 01:59 pm Sep 4 10:59 am
running 09/04/2017 16:59:44 Sep 4 12:59 pm Sep 4 9:59 am
running 09/04/2017 16:00:00 Sep 4 12:00 pm Sep 4 9:00 am
running 09/04/2017 14:58:08 Sep 4 10:58 am Sep 4 7:58 am
running 09/04/2017 13:58:24 Sep 4 09:58 am Sep 4 6:58 am
running 09/04/2017 12:58:40 Sep 4 08:58 am Sep 4 5:58 am
running 09/04/2017 11:58:56 Sep 4 07:58 am Sep 4 4:58 am
running 09/04/2017 10:59:12 Sep 4 06:59 am Sep 4 3:59 am
running 09/04/2017 09:59:28 Sep 4 05:59 am Sep 4 2:59 am
running 09/04/2017 08:59:44 Sep 4 04:59 am Sep 4 1:59 am

Report - Reports of Related Gauges

Reports give the public a chance to report on river conditions throughout the country as well as log the history of a river.

Reports

No Reports Filed

Linked Reaches

Click a heading to sort. Hover over a heading for help.
River Name/Section Class Level running? Updated
Pit [CA] 6) Pit 5: Pit 5 Dam to Pit 5 Powerhouse III+(V) 2034 cfs
-8 cfs/hr
R3-
Runnable
02h44m